Погода в Еленя-Гура

Польша     50°52′01″N   15°40′47″E
темп.,
°C
ветер,
м/с
пор.,
м/с
влажн.,
%
обл.,
%
осадки,
мм/ч
давл.,
гПа
погр.,
м
13 августа, сб
сб1323:00+13св11732 0.0 102119
02:00+13ссв1174100 0.0 102015
05:00+13ссв2277100 0.0 101933
08:00+15ссв2387100 0.0 1018341
11:00+15ссв1398100 1.3 1018250
14:00+16ссв2498100 1.8 1017463
17:00+16св2496100 0.9 1017342
20:00+16св2396100 1.6 1016174
14 августа, вс
вс1423:00+15св129994 0.1 101683
02:00+14св129977 0.2 101543
05:00+15св239950 0.0 101596
08:00+16св229499 0.0 1014184
11:00+20всв257352 0.3 1013693
14:00+22всв356256 0.8 10111379
17:00+20в237780 3.3 1011445
20:00+17вюв118995 5.4 101011
15 августа, пн
пн1523:00+15юв11903 0.0 100913
02:00+15юз11891 0.0 100813
05:00+15ююз01900 0.0 100711
08:00+18юз11830 0.0 1007101
11:00+24ю11565 0.0 10061243
14:00+26ююз224332 0.1 10062165
17:00+23ююв115386 0.0 1006422
20:00+19ююв2271100 0.0 100739
16 августа, вт
вт1623:00+18зюз116628 0.0 100816
02:00+18зюз226998 0.1 100825
05:00+18сз226889 0.0 100935
08:00+19з1265100 0.0 1010124
11:00+25з12455 0.0 10111089
14:00+26зюз233967 0.0 10112170
17:00+25зюз124057 0.0 10111573
20:00+20ююз11618 0.0 101212
17 августа, ср
ср1723:00+21зюз114970 0.0 101313
02:00+18юз11547 0.0 101313
05:00+18юз11551 0.0 101313
08:00+22юз11511 0.0 101358
11:00+27вюв22341 0.0 10132316
14:00+28юв223337 0.0 10122551
17:00+28ююв233222 0.0 10112504
20:00+22вюв1157100 0.0 101113